| time (UTC) | temp F | wind direction | speed MPH | gust MPH | rain 1hr in | rain 24hr in | rain mn in | humidity % | barometer mb |
| 20260509213454 | 65 | 0 | 2.0 | 3.0 | 0.00 | 0.00 | 0.00 | 49 | 1015.9 |
| 20260509212725 | 65 | 0 | 2.0 | 4.0 | 0.00 | 0.00 | 0.00 | 49 | 1015.9 |
| 20260509212449 | 65 | 0 | 3.0 | 5.0 | 0.00 | 0.00 | 0.00 | 49 | 1015.9 |
| 20260509211943 | 66 | 0 | 3.0 | 5.0 | 0.00 | 0.00 | 0.00 | 48 | 1015.9 |
| 20260509211225 | 66 | 0 | 4.0 | 5.0 | 0.00 | 0.00 | 0.00 | 48 | 1015.9 |
| 20260509210724 | 66 | 0 | 2.0 | 2.0 | 0.00 | 0.00 | 0.00 | 48 | 1015.8 |
| 20260509210225 | 66 | 0 | 0.0 | 0.0 | 0.00 | 0.00 | 0.00 | 48 | 1015.9 |
| 20260509205949 | 66 | 0 | 0.0 | 3.0 | 0.00 | 0.00 | 0.00 | 48 | 1016.0 |
| 20260509205224 | 66 | 0 | 0.0 | 3.0 | 0.00 | 0.00 | 0.00 | 48 | 1015.9 |
| 20260509204724 | 66 | 0 | 2.0 | 2.0 | 0.00 | 0.00 | 0.00 | 48 | 1015.9 |
| 20260509204712 | 66 | 0 | 2.0 | 4.0 | 0.00 | 0.00 | 0.00 | 47 | 1015.9 |
| 20260509203724 | 66 | 0 | 1.0 | 4.0 | 0.00 | 0.00 | 0.00 | 47 | 1015.9 |
| 20260509203224 | 66 | 0 | 3.0 | 4.0 | 0.00 | 0.00 | 0.00 | 48 | 1015.8 |
| 20260509202724 | 67 | 0 | 0.0 | 2.0 | 0.00 | 0.00 | 0.00 | 48 | 1015.8 |
| 20260509202224 | 67 | 0 | 0.0 | 0.0 | 0.00 | 0.00 | 0.00 | 49 | 1015.9 |
| 20260509201724 | 67 | 0 | 0.0 | 0.0 | 0.00 | 0.00 | 0.00 | 49 | 1015.8 |
| 20260509201223 | 67 | 0 | 0.0 | 0.0 | 0.00 | 0.00 | 0.00 | 49 | 1015.8 |
| 20260509200723 | 68 | 0 | 0.0 | 0.0 | 0.00 | 0.00 | 0.00 | 49 | 1015.8 |
| 20260509200450 | 68 | 0 | 0.0 | 0.0 | 0.00 | 0.00 | 0.00 | 49 | 1015.8 |
| 20260509195728 | 68 | 0 | 0.0 | 0.0 | 0.00 | 0.00 | 0.00 | 49 | 1015.7 |
| 20260509195223 | 68 | 0 | 0.0 | 0.0 | 0.00 | 0.00 | 0.00 | 49 | 1015.7 |
| 20260509194949 | 69 | 0 | 0.0 | 0.0 | 0.00 | 0.00 | 0.00 | 50 | 1015.6 |
| 20260509194223 | 69 | 0 | 0.0 | 0.0 | 0.00 | 0.00 | 0.00 | 49 | 1015.5 |
| 20260509193723 | 69 | 0 | 0.0 | 0.0 | 0.00 | 0.00 | 0.00 | 49 | 1015.5 |
| 20260509193223 | 70 | 0 | 0.0 | 0.0 | 0.00 | 0.00 | 0.00 | 46 | 1015.4 |
| 20260509192722 | 70 | 0 | 0.0 | 0.0 | 0.00 | 0.00 | 0.00 | 43 | 1015.4 |
| 20260509192222 | 70 | 0 | 0.0 | 0.0 | 0.00 | 0.00 | 0.00 | 43 | 1015.1 |
| 20260509191722 | 70 | 0 | 0.0 | 0.0 | 0.00 | 0.00 | 0.00 | 42 | 1015.1 |
| 20260509191222 | 70 | 0 | 0.0 | 2.0 | 0.00 | 0.00 | 0.00 | 42 | 1015.0 |
| 20260509190722 | 71 | 0 | 0.0 | 2.0 | 0.00 | 0.00 | 0.00 | 43 | 1015.0 |
| 20260509190222 | 71 | 0 | 0.0 | 3.0 | 0.00 | 0.00 | 0.00 | 43 | 1014.9 |
| 20260509185723 | 71 | 0 | 2.0 | 3.0 | 0.00 | 0.00 | 0.00 | 42 | 1014.9 |
| 20260509185222 | 71 | 0 | 0.0 | 2.0 | 0.00 | 0.00 | 0.00 | 42 | 1014.9 |
| 20260509184722 | 71 | 0 | 1.0 | 3.0 | 0.00 | 0.00 | 0.00 | 43 | 1014.9 |
| 20260509184222 | 71 | 0 | 2.0 | 3.0 | 0.00 | 0.00 | 0.00 | 43 | 1014.9 |
| 20260509183722 | 71 | 0 | 2.0 | 4.0 | 0.00 | 0.00 | 0.00 | 42 | 1014.9 |
| 20260509183221 | 71 | 0 | 3.0 | 4.0 | 0.00 | 0.00 | 0.00 | 42 | 1014.9 |
| 20260509182949 | 71 | 0 | 1.0 | 5.0 | 0.00 | 0.00 | 0.00 | 41 | 1014.8 |
| 20260509182216 | 72 | 0 | 3.0 | 5.0 | 0.00 | 0.00 | 0.00 | 41 | 1014.8 |
| 20260509181709 | 72 | 0 | 3.0 | 5.0 | 0.00 | 0.00 | 0.00 | 41 | 1014.8 |
| 20260509181210 | 72 | 0 | 1.0 | 4.0 | 0.00 | 0.00 | 0.00 | 40 | 1014.8 |
| 20260509180706 | 73 | 0 | 3.0 | 4.0 | 0.00 | 0.00 | 0.00 | 39 | 1014.9 |
| 20260509180430 | 73 | 0 | 2.0 | 3.0 | 0.00 | 0.00 | 0.00 | 39 | 1014.8 |
| 20260509175706 | 74 | 0 | 1.0 | 3.0 | 0.00 | 0.00 | 0.00 | 38 | 1014.8 |
| 20260509175205 | 74 | 0 | 1.0 | 2.0 | 0.00 | 0.00 | 0.00 | 37 | 1014.8 |
| 20260509174706 | 74 | 0 | 0.0 | 0.0 | 0.00 | 0.00 | 0.00 | 35 | 1014.7 |
| 20260509174206 | 74 | 0 | 0.0 | 2.0 | 0.00 | 0.00 | 0.00 | 36 | 1014.8 |
| 20260509173705 | 74 | 0 | 0.0 | 2.0 | 0.00 | 0.00 | 0.00 | 35 | 1014.7 |
| 20260509173206 | 74 | 138 | 1.0 | 2.0 | 0.00 | 0.00 | 0.00 | 35 | 1014.7 |
| 20260509172930 | 74 | 138 | 0.0 | 3.0 | 0.00 | 0.00 | 0.00 | 33 | 1014.8 |
| 20260509172206 | 74 | 138 | 1.0 | 3.0 | 0.00 | 0.00 | 0.00 | 33 | 1014.7 |
| 20260509171706 | 75 | 137 | 0.0 | 3.0 | 0.00 | 0.00 | 0.00 | 32 | 1014.7 |
| 20260509171206 | 75 | 137 | 0.0 | 2.0 | 0.00 | 0.00 | 0.00 | 33 | 1014.7 |
| 20260509171149 | 75 | 137 | 0.0 | 1.0 | 0.00 | 0.00 | 0.00 | 32 | 1014.6 |
| 20260509170427 | 75 | 133 | 0.0 | 2.0 | 0.00 | 0.00 | 0.00 | 32 | 1014.6 |
| 20260509165936 | 75 | 134 | 2.0 | 2.0 | 0.00 | 0.00 | 0.00 | 32 | 1014.7 |
| 20260509165206 | 74 | 128 | 2.0 | 2.0 | 0.00 | 0.00 | 0.00 | 32 | 1014.7 |
| 20260509164706 | 74 | 144 | 1.0 | 5.0 | 0.00 | 0.00 | 0.00 | 33 | 1014.7 |
| 20260509164206 | 74 | 144 | 3.0 | 5.0 | 0.00 | 0.00 | 0.00 | 33 | 1014.7 |
| 20260509163706 | 74 | 214 | 1.0 | 3.0 | 0.00 | 0.00 | 0.00 | 34 | 1014.8 |
| 20260509163206 | 74 | 259 | 1.0 | 4.0 | 0.00 | 0.00 | 0.00 | 33 | 1014.8 |
| 20260509162926 | 75 | 259 | 2.0 | 4.0 | 0.00 | 0.00 | 0.00 | 33 | 1014.9 |
| 20260509162206 | 75 | 261 | 2.0 | 4.0 | 0.00 | 0.00 | 0.00 | 32 | 1014.9 |
| 20260509161706 | 75 | 248 | 2.0 | 4.0 | 0.00 | 0.00 | 0.00 | 32 | 1015.0 |
| 20260509161205 | 74 | 186 | 1.0 | 3.0 | 0.00 | 0.00 | 0.00 | 32 | 1015.1 |
| 20260509160706 | 74 | 179 | 1.0 | 5.0 | 0.00 | 0.00 | 0.00 | 32 | 1015.1 |
| 20260509160206 | 74 | 186 | 3.0 | 5.0 | 0.00 | 0.00 | 0.00 | 35 | 1015.1 |
| 20260509155706 | 74 | 252 | 3.0 | 5.0 | 0.00 | 0.00 | 0.00 | 36 | 1015.2 |
| 20260509155206 | 74 | 248 | 4.0 | 5.0 | 0.00 | 0.00 | 0.00 | 36 | 1015.4 |
| 20260509154706 | 74 | 250 | 3.0 | 5.0 | 0.00 | 0.00 | 0.00 | 34 | 1015.2 |
| 20260509154205 | 74 | 240 | 3.0 | 4.0 | 0.00 | 0.00 | 0.00 | 33 | 1015.4 |
| 20260509153923 | 74 | 197 | 3.0 | 4.0 | 0.00 | 0.00 | 0.00 | 33 | 1015.2 |
| 20260509153206 | 74 | 189 | 2.0 | 5.0 | 0.00 | 0.00 | 0.00 | 33 | 1015.4 |
| 20260509152706 | 75 | 189 | 3.0 | 5.0 | 0.00 | 0.00 | 0.00 | 34 | 1015.5 |
| 20260509152206 | 75 | 269 | 3.0 | 5.0 | 0.00 | 0.00 | 0.00 | 35 | 1015.6 |
| 20260509151704 | 74 | 189 | 1.0 | 4.0 | 0.00 | 0.00 | 0.00 | 33 | 1015.6 |
| 20260509151205 | 75 | 223 | 3.0 | 4.0 | 0.00 | 0.00 | 0.00 | 35 | 1015.7 |
| 20260509150933 | 76 | 336 | 3.0 | 5.0 | 0.00 | 0.00 | 0.00 | 33 | 1015.7 |
| 20260509150429 | 74 | 247 | 2.0 | 5.0 | 0.00 | 0.00 | 0.00 | 34 | 1015.8 |
| 20260509145706 | 74 | 164 | 3.0 | 4.0 | 0.00 | 0.00 | 0.00 | 34 | 1015.9 |
| 20260509145206 | 75 | 207 | 2.0 | 4.0 | 0.00 | 0.00 | 0.00 | 33 | 1015.9 |
| 20260509144705 | 75 | 196 | 1.0 | 4.0 | 0.00 | 0.00 | 0.00 | 33 | 1015.9 |
| 20260509144205 | 76 | 168 | 1.0 | 6.0 | 0.00 | 0.00 | 0.00 | 33 | 1016.0 |
| 20260509143705 | 74 | 165 | 2.0 | 6.0 | 0.00 | 0.00 | 0.00 | 35 | 1016.0 |
| 20260509143205 | 74 | 173 | 2.0 | 6.0 | 0.00 | 0.00 | 0.00 | 36 | 1016.0 |
| 20260509142704 | 74 | 197 | 3.0 | 6.0 | 0.00 | 0.00 | 0.00 | 34 | 1016.0 |
| 20260509142205 | 74 | 162 | 3.0 | 6.0 | 0.00 | 0.00 | 0.00 | 35 | 1016.0 |
| 20260509141933 | 74 | 202 | 3.0 | 6.0 | 0.00 | 0.00 | 0.00 | 35 | 1016.0 |
| 20260509141428 | 74 | 173 | 2.0 | 7.0 | 0.00 | 0.00 | 0.00 | 35 | 1016.0 |
| 20260509140705 | 74 | 176 | 2.0 | 7.0 | 0.00 | 0.00 | 0.00 | 38 | 1016.1 |
| 20260509140204 | 74 | 261 | 2.0 | 6.0 | 0.00 | 0.00 | 0.00 | 35 | 1016.1 |
| 20260509135704 | 74 | 219 | 4.0 | 7.0 | 0.00 | 0.00 | 0.00 | 36 | 1016.2 |
| 20260509135204 | 74 | 250 | 4.0 | 7.0 | 0.00 | 0.00 | 0.00 | 34 | 1016.3 |
| 20260509134704 | 74 | 252 | 4.0 | 6.0 | 0.00 | 0.00 | 0.00 | 34 | 1016.3 |
| 20260509134204 | 75 | 313 | 2.0 | 6.0 | 0.00 | 0.00 | 0.00 | 33 | 1016.4 |
| 20260509134151 | 74 | 202 | 2.0 | 4.0 | 0.00 | 0.00 | 0.00 | 35 | 1016.5 |
| 20260509133204 | 74 | 155 | 2.0 | 5.0 | 0.00 | 0.00 | 0.00 | 35 | 1016.4 |
| 20260509132704 | 73 | 248 | 3.0 | 5.0 | 0.00 | 0.00 | 0.00 | 34 | 1016.5 |
| 20260509132428 | 74 | 202 | 5.0 | 5.0 | 0.00 | 0.00 | 0.00 | 36 | 1016.5 |
| 20260509131704 | 74 | 169 | 2.0 | 5.0 | 0.00 | 0.00 | 0.00 | 36 | 1016.5 |
| 20260509131423 | 74 | 186 | 2.0 | 4.0 | 0.00 | 0.00 | 0.00 | 31 | 1016.5 |
| 20260509130704 | 74 | 86 | 3.0 | 7.0 | 0.00 | 0.00 | 0.00 | 34 | 1016.5 |
| 20260509130204 | 74 | 125 | 4.0 | 7.0 | 0.00 | 0.00 | 0.00 | 33 | 1016.5 |
| 20260509125704 | 73 | 130 | 5.0 | 6.0 | 0.00 | 0.00 | 0.00 | 35 | 1016.7 |
| 20260509125204 | 73 | 168 | 3.0 | 5.0 | 0.00 | 0.00 | 0.00 | 37 | 1016.8 |
| 20260509124704 | 73 | 255 | 4.0 | 5.0 | 0.00 | 0.00 | 0.00 | 36 | 1016.7 |
| 20260509124204 | 74 | 185 | 1.0 | 9.0 | 0.00 | 0.00 | 0.00 | 36 | 1016.8 |
| 20260509123705 | 73 | 176 | 3.0 | 9.0 | 0.00 | 0.00 | 0.00 | 36 | 1016.9 |
| 20260509123431 | 73 | 234 | 3.0 | 7.0 | 0.00 | 0.00 | 0.00 | 37 | 1016.9 |
| 20260509122704 | 73 | 204 | 4.0 | 5.0 | 0.00 | 0.00 | 0.00 | 35 | 1017.0 |
| 20260509122205 | 73 | 178 | 4.0 | 4.0 | 0.00 | 0.00 | 0.00 | 39 | 1017.1 |
| 20260509121704 | 73 | 190 | 1.0 | 9.0 | 0.00 | 0.00 | 0.00 | 35 | 1017.1 |
| 20260509121205 | 73 | 94 | 4.0 | 9.0 | 0.00 | 0.00 | 0.00 | 36 | 1017.0 |
| 20260509120705 | 72 | 140 | 3.0 | 7.0 | 0.00 | 0.00 | 0.00 | 39 | 1017.1 |
| 20260509120204 | 73 | 202 | 2.0 | 7.0 | 0.00 | 0.00 | 0.00 | 36 | 1017.1 |
| 20260509115705 | 74 | 135 | 4.0 | 6.0 | 0.00 | 0.00 | 0.00 | 36 | 1017.3 |
| 20260509115204 | 72 | 0 | 2.0 | 10.0 | 0.00 | 0.00 | 0.00 | 36 | 1017.3 |
| 20260509114704 | 73 | 0 | 5.0 | 10.0 | 0.00 | 0.00 | 0.00 | 39 | 1017.3 |
| 20260509114205 | 73 | 0 | 4.0 | 7.0 | 0.00 | 0.00 | 0.00 | 39 | 1017.4 |
| 20260509113704 | 73 | 0 | 6.0 | 7.0 | 0.00 | 0.00 | 0.00 | 39 | 1017.3 |
| 20260509113425 | 71 | 0 | 3.0 | 7.0 | 0.00 | 0.00 | 0.00 | 41 | 1017.4 |
| 20260509112928 | 71 | 0 | 4.0 | 7.0 | 0.00 | 0.00 | 0.00 | 41 | 1017.4 |
| 20260509112205 | 71 | 0 | 2.0 | 11.0 | 0.00 | 0.00 | 0.00 | 40 | 1017.5 |
| 20260509111704 | 72 | 0 | 4.0 | 11.0 | 0.00 | 0.00 | 0.00 | 39 | 1017.6 |
| 20260509111421 | 71 | 0 | 3.0 | 5.0 | 0.00 | 0.00 | 0.00 | 40 | 1017.6 |
| 20260509110704 | 71 | 0 | 3.0 | 10.0 | 0.00 | 0.00 | 0.00 | 43 | 1017.6 |
| 20260509110205 | 71 | 0 | 4.0 | 10.0 | 0.00 | 0.00 | 0.00 | 44 | 1017.7 |
| 20260509105705 | 71 | 0 | 1.0 | 7.0 | 0.00 | 0.00 | 0.00 | 43 | 1017.6 |
| 20260509105205 | 70 | 0 | 4.0 | 10.0 | 0.00 | 0.00 | 0.00 | 46 | 1017.7 |
| 20260509104704 | 69 | 0 | 2.0 | 10.0 | 0.00 | 0.00 | 0.00 | 46 | 1017.7 |
| 20260509104641 | 69 | 0 | 5.0 | 7.0 | 0.00 | 0.00 | 0.00 | 45 | 1017.7 |
| 20260509103932 | 69 | 0 | 4.0 | 6.0 | 0.00 | 0.00 | 0.00 | 46 | 1017.8 |
| 20260509103204 | 69 | 0 | 3.0 | 6.0 | 0.00 | 0.00 | 0.00 | 45 | 1017.9 |
| 20260509102706 | 70 | 0 | 3.0 | 6.0 | 0.00 | 0.00 | 0.00 | 46 | 1017.9 |
| 20260509102206 | 69 | 0 | 4.0 | 6.0 | 0.00 | 0.01 | 0.00 | 46 | 1017.9 |
| 20260509101706 | 69 | 0 | 4.0 | 6.0 | 0.00 | 0.01 | 0.00 | 46 | 1018.0 |
| 20260509101206 | 69 | 0 | 2.0 | 6.0 | 0.00 | 0.02 | 0.00 | 46 | 1018.0 |
| 20260509100706 | 68 | 0 | 2.0 | 9.0 | 0.00 | 0.02 | 0.00 | 45 | 1018.0 |
| 20260509100206 | 68 | 0 | 4.0 | 9.0 | 0.00 | 0.02 | 0.00 | 45 | 1018.1 |
| 20260509095706 | 68 | 0 | 5.0 | 7.0 | 0.00 | 0.02 | 0.00 | 48 | 1018.0 |
| 20260509095205 | 68 | 0 | 5.0 | 6.0 | 0.00 | 0.03 | 0.00 | 47 | 1018.0 |
| 20260509094706 | 68 | 0 | 2.0 | 7.0 | 0.00 | 0.04 | 0.00 | 47 | 1018.1 |
| 20260509094428 | 69 | 0 | 4.0 | 7.0 | 0.00 | 0.06 | 0.00 | 47 | 1018.2 |
| 20260509093705 | 68 | 0 | 1.0 | 7.0 | 0.00 | 0.07 | 0.00 | 46 | 1018.1 |
| 20260509093206 | 68 | 0 | 4.0 | 7.0 | 0.00 | 0.09 | 0.00 | 46 | 1018.2 |
| 20260509092706 | 69 | 0 | 3.0 | 6.0 | 0.00 | 0.10 | 0.00 | 46 | 1018.2 |
| 20260509092204 | 68 | 0 | 2.0 | 6.0 | 0.00 | 0.12 | 0.00 | 46 | 1018.2 |
| 20260509091706 | 67 | 0 | 1.0 | 5.0 | 0.00 | 0.13 | 0.00 | 48 | 1018.2 |
| 20260509091206 | 67 | 0 | 3.0 | 5.0 | 0.00 | 0.14 | 0.00 | 46 | 1018.3 |
| 20260509090705 | 67 | 0 | 3.0 | 5.0 | 0.00 | 0.15 | 0.00 | 47 | 1018.3 |
| 20260509090206 | 67 | 0 | 2.0 | 7.0 | 0.00 | 0.15 | 0.00 | 48 | 1018.4 |
| 20260509085706 | 66 | 0 | 3.0 | 7.0 | 0.00 | 0.17 | 0.00 | 49 | 1018.5 |
| 20260509085205 | 67 | 0 | 1.0 | 3.0 | 0.00 | 0.17 | 0.00 | 49 | 1018.4 |
| 20260509084706 | 66 | 0 | 2.0 | 5.0 | 0.00 | 0.19 | 0.00 | 49 | 1018.4 |
| 20260509084206 | 66 | 0 | 1.0 | 5.0 | 0.00 | 0.20 | 0.00 | 49 | 1018.5 |
| 20260509083706 | 66 | 0 | 4.0 | 5.0 | 0.00 | 0.22 | 0.00 | 48 | 1018.4 |
| 20260509083427 | 66 | 0 | 2.0 | 5.0 | 0.00 | 0.23 | 0.00 | 49 | 1018.4 |
| 20260509082706 | 65 | 0 | 3.0 | 5.0 | 0.00 | 0.24 | 0.00 | 48 | 1018.4 |
| 20260509082206 | 64 | 0 | 1.0 | 6.0 | 0.00 | 0.25 | 0.00 | 49 | 1018.5 |
| 20260509081705 | 64 | 0 | 2.0 | 6.0 | 0.00 | 0.26 | 0.00 | 50 | 1018.5 |
| 20260509081206 | 64 | 0 | 3.0 | 6.0 | 0.00 | 0.26 | 0.00 | 49 | 1018.6 |
| 20260509080704 | 64 | 0 | 3.0 | 6.0 | 0.00 | 0.26 | 0.00 | 50 | 1018.6 |
| 20260509080204 | 63 | 0 | 3.0 | 5.0 | 0.00 | 0.26 | 0.00 | 49 | 1018.6 |
| 20260509075705 | 64 | 0 | 2.0 | 4.0 | 0.00 | 0.27 | 0.00 | 50 | 1018.6 |
| 20260509075204 | 63 | 0 | 0.0 | 0.0 | 0.00 | 0.27 | 0.00 | 49 | 1018.7 |
| 20260509074704 | 63 | 0 | 0.0 | 1.0 | 0.00 | 0.27 | 0.00 | 50 | 1018.7 |
| 20260509074425 | 62 | 0 | 0.0 | 2.0 | 0.00 | 0.27 | 0.00 | 50 | 1018.8 |
| 20260509073704 | 62 | 0 | 0.0 | 3.0 | 0.00 | 0.27 | 0.00 | 50 | 1018.8 |
| 20260509073205 | 62 | 0 | 2.0 | 3.0 | 0.00 | 0.27 | 0.00 | 50 | 1018.8 |
| 20260509072704 | 61 | 0 | 0.0 | 4.0 | 0.00 | 0.27 | 0.00 | 51 | 1018.8 |
| 20260509072204 | 61 | 0 | 2.0 | 4.0 | 0.00 | 0.27 | 0.00 | 50 | 1018.8 |
| 20260509071704 | 60 | 0 | 2.0 | 4.0 | 0.00 | 0.27 | 0.00 | 50 | 1018.8 |
| 20260509071205 | 60 | 0 | 3.0 | 4.0 | 0.00 | 0.28 | 0.00 | 50 | 1018.8 |
| 20260509070706 | 60 | 0 | 0.0 | 0.0 | 0.00 | 0.28 | 0.00 | 50 | 1018.8 |
| 20260509070205 | 60 | 0 | 0.0 | 0.0 | 0.00 | 0.28 | 0.00 | 51 | 1018.7 |
| 20260509065706 | 60 | 0 | 0.0 | 0.0 | 0.00 | 0.28 | 0.00 | 51 | 1018.6 |
| 20260509065206 | 59 | 0 | 0.0 | 0.0 | 0.00 | 0.28 | 0.00 | 52 | 1018.6 |
| 20260509064705 | 59 | 0 | 0.0 | 0.0 | 0.00 | 0.28 | 0.00 | 52 | 1018.5 |
| 20260509064206 | 58 | 0 | 0.0 | 0.0 | 0.00 | 0.28 | 0.00 | 53 | 1018.6 |
| 20260509063704 | 58 | 0 | 0.0 | 0.0 | 0.00 | 0.29 | 0.00 | 55 | 1018.5 |
| 20260509063202 | 57 | 0 | 0.0 | 0.0 | 0.00 | 0.29 | 0.00 | 55 | 1018.6 |
| 20260509062701 | 57 | 0 | 0.0 | 0.0 | 0.00 | 0.29 | 0.00 | 56 | 1018.7 |
| 20260509062202 | 57 | 0 | 0.0 | 0.0 | 0.00 | 0.29 | 0.00 | 56 | 1018.8 |
| 20260509061701 | 56 | 0 | 0.0 | 0.0 | 0.00 | 0.29 | 0.00 | 57 | 1018.8 |
| 20260509061429 | 56 | 0 | 0.0 | 0.0 | 0.00 | 0.29 | 0.00 | 57 | 1018.8 |
| 20260509060703 | 56 | 0 | 0.0 | 0.0 | 0.00 | 0.29 | 0.00 | 58 | 1018.9 |
| 20260509060202 | 56 | 0 | 0.0 | 0.0 | 0.00 | 0.29 | 0.00 | 58 | 1018.9 |
| 20260509055702 | 56 | 0 | 0.0 | 0.0 | 0.00 | 0.29 | 0.00 | 58 | 1018.8 |
| 20260509055202 | 55 | 0 | 0.0 | 0.0 | 0.00 | 0.29 | 0.00 | 58 | 1018.9 |
| 20260509054702 | 55 | 0 | 0.0 | 0.0 | 0.00 | 0.29 | 0.00 | 58 | 1018.7 |
| 20260509054202 | 55 | 0 | 0.0 | 0.0 | 0.00 | 0.29 | 0.00 | 58 | 1018.8 |
| 20260509053701 | 55 | 0 | 0.0 | 0.0 | 0.00 | 0.29 | 0.00 | 58 | 1018.7 |
| 20260509053202 | 54 | 0 | 0.0 | 0.0 | 0.00 | 0.29 | 0.00 | 58 | 1018.6 |
| 20260509052701 | 54 | 0 | 0.0 | 0.0 | 0.00 | 0.29 | 0.00 | 58 | 1018.6 |
| 20260509052202 | 54 | 0 | 0.0 | 0.0 | 0.00 | 0.29 | 0.00 | 58 | 1018.5 |
| 20260509051701 | 54 | 0 | 0.0 | 0.0 | 0.00 | 0.29 | 0.00 | 58 | 1018.5 |
| 20260509051201 | 53 | 0 | 0.0 | 0.0 | 0.00 | 0.29 | 0.00 | 58 | 1018.5 |
| 20260509050924 | 53 | 0 | 0.0 | 0.0 | 0.00 | 0.29 | 0.00 | 58 | 1018.5 |
| 20260509050422 | 53 | 0 | 0.0 | 0.0 | 0.00 | 0.29 | 0.00 | 58 | 1018.4 |
| 20260509045701 | 53 | 0 | 0.0 | 0.0 | 0.00 | 0.29 | 0.00 | 58 | 1018.4 |
| 20260509045201 | 52 | 0 | 0.0 | 0.0 | 0.00 | 0.29 | 0.00 | 58 | 1018.3 |
| 20260509044701 | 52 | 0 | 0.0 | 0.0 | 0.00 | 0.29 | 0.00 | 58 | 1018.2 |
| 20260509044200 | 52 | 0 | 0.0 | 0.0 | 0.00 | 0.29 | 0.00 | 58 | 1018.3 |
| 20260509043922 | 52 | 0 | 0.0 | 0.0 | 0.00 | 0.29 | 0.00 | 58 | 1018.3 |
| 20260509043413 | 52 | 0 | 0.0 | 0.0 | 0.00 | 0.29 | 0.00 | 58 | 1018.2 |
| 20260509043359 | 52 | 0 | 0.0 | 0.0 | 0.00 | 0.29 | 0.00 | 58 | 1018.2 |
| 20260509042421 | 52 | 0 | 0.0 | 0.0 | 0.00 | 0.29 | 0.00 | 58 | 1018.2 |
| 20260509041700 | 52 | 0 | 0.0 | 0.0 | 0.00 | 0.29 | 0.00 | 58 | 1018.2 |
| 20260509041420 | 52 | 0 | 0.0 | 0.0 | 0.00 | 0.29 | 0.00 | 58 | 1018.2 |
| 20260509040659 | 52 | 0 | 0.0 | 0.0 | 0.00 | 0.29 | 0.00 | 58 | 1018.2 |
| 20260509040200 | 52 | 0 | 0.0 | 0.0 | 0.00 | 0.29 | 0.00 | 58 | 1018.1 |
| 20260509035700 | 52 | 0 | 0.0 | 2.0 | 0.00 | 0.29 | 0.00 | 58 | 1018.0 |
| 20260509035159 | 52 | 0 | 1.0 | 2.0 | 0.00 | 0.29 | 0.00 | 58 | 1018.0 |
| 20260509034659 | 52 | 0 | 0.0 | 0.0 | 0.00 | 0.29 | 0.00 | 58 | 1018.1 |
| 20260509034159 | 51 | 0 | 0.0 | 0.0 | 0.00 | 0.29 | 0.00 | 58 | 1018.2 |
| 20260509033659 | 51 | 0 | 0.0 | 0.0 | 0.00 | 0.29 | 0.00 | 57 | 1018.1 |
| 20260509033158 | 51 | 0 | 0.0 | 0.0 | 0.00 | 0.29 | 0.00 | 57 | 1018.1 |
| 20260509032659 | 51 | 0 | 0.0 | 0.0 | 0.00 | 0.29 | 0.00 | 57 | 1018.1 |
| 20260509032159 | 52 | 0 | 0.0 | 0.0 | 0.00 | 0.29 | 0.00 | 57 | 1018.2 |
| 20260509031659 | 52 | 0 | 0.0 | 0.0 | 0.00 | 0.29 | 0.00 | 57 | 1018.1 |
| 20260509031158 | 53 | 0 | 0.0 | 0.0 | 0.00 | 0.29 | 0.00 | 57 | 1018.1 |
| 20260509030658 | 53 | 0 | 0.0 | 0.0 | 0.00 | 0.29 | 0.00 | 57 | 1018.0 |
| 20260509030158 | 53 | 0 | 0.0 | 0.0 | 0.00 | 0.29 | 0.00 | 57 | 1018.0 |
| 20260509025658 | 53 | 0 | 0.0 | 0.0 | 0.00 | 0.29 | 0.00 | 57 | 1018.0 |
| 20260509025158 | 53 | 0 | 0.0 | 0.0 | 0.00 | 0.29 | 0.00 | 57 | 1018.0 |
| 20260509024658 | 53 | 0 | 0.0 | 0.0 | 0.00 | 0.29 | 0.00 | 57 | 1018.0 |
| 20260509024158 | 53 | 0 | 0.0 | 0.0 | 0.00 | 0.29 | 0.00 | 57 | 1018.0 |
| 20260509023922 | 53 | 0 | 0.0 | 0.0 | 0.00 | 0.29 | 0.00 | 57 | 1018.1 |
| 20260509023157 | 53 | 0 | 0.0 | 0.0 | 0.00 | 0.29 | 0.00 | 57 | 1018.2 |
| 20260509022657 | 53 | 0 | 0.0 | 0.0 | 0.00 | 0.29 | 0.00 | 57 | 1018.1 |
| 20260509022158 | 53 | 0 | 0.0 | 0.0 | 0.00 | 0.29 | 0.00 | 57 | 1018.0 |
| 20260509021657 | 53 | 0 | 0.0 | 0.0 | 0.00 | 0.29 | 0.00 | 57 | 1018.1 |
| 20260509021158 | 53 | 0 | 0.0 | 0.0 | 0.00 | 0.29 | 0.00 | 57 | 1018.1 |
| 20260509020657 | 53 | 0 | 0.0 | 0.0 | 0.00 | 0.29 | 0.00 | 57 | 1018.2 |
| 20260509020157 | 53 | 0 | 0.0 | 0.0 | 0.00 | 0.29 | 0.00 | 57 | 1018.1 |
| 20260509015657 | 53 | 0 | 0.0 | 0.0 | 0.00 | 0.29 | 0.00 | 57 | 1018.1 |
| 20260509015157 | 53 | 0 | 0.0 | 0.0 | 0.00 | 0.29 | 0.00 | 57 | 1018.1 |
| 20260509014656 | 53 | 0 | 0.0 | 0.0 | 0.00 | 0.29 | 0.00 | 57 | 1018.0 |
| 20260509014157 | 53 | 0 | 0.0 | 0.0 | 0.00 | 0.29 | 0.00 | 57 | 1018.0 |
| 20260509013922 | 53 | 0 | 0.0 | 0.0 | 0.00 | 0.29 | 0.00 | 57 | 1017.9 |
| 20260509013157 | 53 | 0 | 0.0 | 0.0 | 0.00 | 0.29 | 0.00 | 57 | 1017.9 |
| 20260509013138 | 53 | 0 | 0.0 | 0.0 | 0.00 | 0.29 | 0.00 | 57 | 1017.8 |
| 20260509012156 | 53 | 0 | 0.0 | 0.0 | 0.00 | 0.29 | 0.00 | 57 | 1017.8 |
| 20260509011919 | 53 | 0 | 0.0 | 1.0 | 0.00 | 0.29 | 0.00 | 57 | 1017.8 |
| 20260509011420 | 53 | 0 | 0.0 | 1.0 | 0.00 | 0.29 | 0.00 | 57 | 1017.9 |
| 20260509010655 | 53 | 0 | 0.0 | 0.0 | 0.00 | 0.29 | 0.00 | 57 | 1017.9 |
| 20260509010155 | 53 | 0 | 0.0 | 0.0 | 0.00 | 0.29 | 0.00 | 57 | 1017.9 |
| 20260509005918 | 53 | 0 | 0.0 | 0.0 | 0.00 | 0.29 | 0.00 | 57 | 1018.0 |
| 20260509005155 | 53 | 0 | 0.0 | 0.0 | 0.00 | 0.29 | 0.00 | 57 | 1018.0 |
| 20260509004916 | 53 | 0 | 0.0 | 2.0 | 0.00 | 0.29 | 0.00 | 56 | 1018.0 |
| 20260509004156 | 54 | 0 | 0.0 | 2.0 | 0.00 | 0.29 | 0.00 | 56 | 1018.1 |
| 20260509003656 | 54 | 0 | 1.0 | 2.0 | 0.00 | 0.29 | 0.00 | 56 | 1018.2 |
| 20260509003155 | 54 | 0 | 0.0 | 0.0 | 0.00 | 0.29 | 0.00 | 56 | 1018.1 |
| 20260509002655 | 55 | 0 | 0.0 | 0.0 | 0.00 | 0.29 | 0.00 | 56 | 1018.1 |
| 20260509002154 | 55 | 0 | 0.0 | 0.0 | 0.00 | 0.29 | 0.00 | 56 | 1018.0 |
| 20260509001655 | 56 | 0 | 0.0 | 0.0 | 0.00 | 0.29 | 0.00 | 56 | 1018.0 |
| 20260509001155 | 56 | 0 | 0.0 | 0.0 | 0.00 | 0.29 | 0.00 | 56 | 1018.0 |
| 20260509000654 | 56 | 0 | 0.0 | 0.0 | 0.00 | 0.29 | 0.00 | 56 | 1018.0 |
| 20260509000155 | 56 | 0 | 0.0 | 0.0 | 0.00 | 0.29 | 0.00 | 56 | 1018.0 |
| 20260508235654 | 56 | 0 | 0.0 | 0.0 | 0.00 | 0.29 | 0.00 | 56 | 1018.1 |
| 20260508235155 | 56 | 0 | 0.0 | 1.0 | 0.00 | 0.29 | 0.00 | 56 | 1018.1 |
| 20260508234920 | 56 | 0 | 0.0 | 1.0 | 0.00 | 0.29 | 0.00 | 56 | 1018.1 |
| 20260508234154 | 56 | 0 | 1.0 | 1.0 | 0.00 | 0.29 | 0.00 | 56 | 1018.1 |
| 20260508233654 | 56 | 0 | 0.0 | 0.0 | 0.00 | 0.29 | 0.00 | 56 | 1018.1 |
| 20260508233154 | 56 | 0 | 0.0 | 0.0 | 0.00 | 0.29 | 0.00 | 56 | 1018.0 |
| 20260508232653 | 56 | 0 | 0.0 | 0.0 | 0.00 | 0.29 | 0.00 | 56 | 1018.2 |
| 20260508232416 | 56 | 0 | 0.0 | 1.0 | 0.00 | 0.29 | 0.00 | 56 | 1018.1 |
| 20260508231653 | 56 | 0 | 0.0 | 3.0 | 0.00 | 0.29 | 0.00 | 56 | 1018.2 |
| 20260508231154 | 56 | 0 | 0.0 | 3.0 | 0.00 | 0.29 | 0.00 | 56 | 1018.2 |
| 20260508230653 | 56 | 0 | 2.0 | 2.0 | 0.00 | 0.29 | 0.00 | 56 | 1018.1 |
| 20260508230153 | 56 | 0 | 0.0 | 1.0 | 0.00 | 0.29 | 0.00 | 56 | 1017.9 |
| 20260508225653 | 56 | 0 | 0.0 | 0.0 | 0.00 | 0.29 | 0.00 | 56 | 1018.0 |
| 20260508225153 | 56 | 0 | 0.0 | 0.0 | 0.00 | 0.29 | 0.00 | 57 | 1018.0 |
| 20260508224653 | 56 | 0 | 0.0 | 1.0 | 0.00 | 0.29 | 0.00 | 57 | 1017.9 |
| 20260508224152 | 56 | 0 | 0.0 | 1.0 | 0.00 | 0.29 | 0.00 | 57 | 1018.1 |
| 20260508223653 | 56 | 0 | 0.0 | 0.0 | 0.00 | 0.29 | 0.00 | 56 | 1018.1 |
| 20260508223152 | 56 | 0 | 0.0 | 0.0 | 0.00 | 0.29 | 0.00 | 56 | 1018.2 |
| 20260508222913 | 56 | 0 | 0.0 | 0.0 | 0.00 | 0.29 | 0.00 | 56 | 1018.2 |
| 20260508222152 | 56 | 0 | 0.0 | 0.0 | 0.00 | 0.29 | 0.00 | 56 | 1018.2 |
| 20260508221652 | 56 | 0 | 0.0 | 0.0 | 0.00 | 0.29 | 0.00 | 56 | 1018.1 |
| 20260508221152 | 57 | 0 | 0.0 | 0.0 | 0.00 | 0.29 | 0.00 | 56 | 1018.1 |
| 20260508220652 | 57 | 0 | 0.0 | 0.0 | 0.00 | 0.29 | 0.00 | 56 | 1018.1 |
| 20260508220151 | 57 | 0 | 0.0 | 0.0 | 0.00 | 0.29 | 0.00 | 56 | 1018.0 |
| 20260508215652 | 57 | 0 | 0.0 | 0.0 | 0.00 | 0.29 | 0.29 | 56 | 1018.0 |
| 20260508215151 | 58 | 0 | 0.0 | 1.0 | 0.00 | 0.29 | 0.29 | 56 | 1018.0 |
| 20260508214651 | 58 | 0 | 0.0 | 1.0 | 0.00 | 0.29 | 0.29 | 57 | 1017.9 |
| 20260508214151 | 58 | 0 | 0.0 | 1.0 | 0.00 | 0.29 | 0.29 | 56 | 1017.9 |